Change the Weather History Date:

Thursday, March 14, 2013

  Actual Average (KVPZ) Record (KVPZ)
Temperature  
Mean Temperature 30 °F 37 °F  
Max Temperature 61 °F 46 °F 82 °F (2012)
Min Temperature 22 °F 28 °F 7 °F (1895)
Degree Days  
Heating Degree Days 34 28  
Month to date heating degree days 425  
Since 1 July heating degree days 5157  
Moisture  
Dew Point 22 °F    
Average Humidity 71    
Maximum Humidity 99    
Minimum Humidity 43    
Precipitation  
Precipitation 0.00 in 0.07 in 2.18 in (1944)
Month to date precipitation 1.04  
Year to date precipitation 4.21  
Sea Level Pressure  
Sea Level Pressure 30.23 in    
Wind  
Wind Speed 7 mph (WSW)    
Max Wind Speed 13 mph    
Max Gust Speed 17 mph    
Visibility 10 miles    
Events      
T = Trace of Precipitation, MM = Missing Value Source: NWS Daily Summary

Daily Weather History Graph

Daily Weather History Graph

Search for Another Location

Airport or City:

Trip Planner

Search our weather history database for the weather conditions in past years. The results will help you decide how hot, cold, wet, or windy it might be!

Date:

Astronomy

Mar. 14, 2013 Rise Set
Actual Time 6:59 AM CDT 6:52 PM CDT
Civil Twilight 6:32 AM CDT 7:20 PM CDT
Nautical Twilight 6:00 AM CDT 7:52 PM CDT
Astronomical Twilight 5:27 AM CDT 8:24 PM CDT
Moon 8:10 AM CDT (3/14) 10:11 PM CDT (3/14)
Length of Visible Light 12h 47m
Length of Day
11h 52m
Waxing Crescent, 9% of the Moon is Illuminated
Mar 14
Waxing Crescent
Mar 19
First Quarter
Mar 27
Full
Apr 2
Last Quarter
Apr 10
New

Hourly Weather History & Observations

Time (CDT) Temp. Windchill Dew Point Humidity Pressure Visibility Wind Dir Wind Speed Gust Speed Precip Events Conditions
12:15 AM 26.4 °F 18.0 °F 17.2 °F 68% 30.29 in 10.0 mi West 8.1 mph - N/A   Clear
12:35 AM 26.1 °F 18.4 °F 17.1 °F 69% 30.29 in 10.0 mi West 6.9 mph - N/A   Clear
1:15 AM 25.7 °F 18.0 °F 16.3 °F 68% 30.30 in 10.0 mi West 6.9 mph - N/A   Clear
1:35 AM 25.7 °F 18.0 °F 16.0 °F 67% 30.30 in 10.0 mi West 6.9 mph - N/A   Clear
1:55 AM 25.5 °F 17.8 °F 15.8 °F 67% 30.30 in 10.0 mi West 6.9 mph - N/A   Clear
2:15 AM 25.2 °F 17.3 °F 16.3 °F 69% 30.31 in 10.0 mi West 6.9 mph - N/A   Clear
2:35 AM 24.8 °F 15.3 °F 16.5 °F 71% 30.31 in 10.0 mi West 9.2 mph - N/A   Clear
2:55 AM 24.8 °F 16.1 °F 16.0 °F 69% 30.30 in 10.0 mi West 8.1 mph - N/A   Clear
3:15 AM 24.6 °F 15.8 °F 15.8 °F 69% 30.29 in 10.0 mi West 8.1 mph - N/A   Clear
3:35 AM 24.3 °F 15.4 °F 16.2 °F 71% 30.29 in 10.0 mi West 8.1 mph - N/A   Clear
3:55 AM 24.3 °F 15.4 °F 16.3 °F 72% 30.29 in 10.0 mi West 8.1 mph - N/A   Clear
4:15 AM 24.1 °F 16.0 °F 16.5 °F 73% 30.28 in 10.0 mi West 6.9 mph - N/A   Clear
4:35 AM 23.9 °F 15.0 °F 17.1 °F 75% 30.28 in 10.0 mi West 8.1 mph - N/A   Clear
4:55 AM 23.7 °F 15.6 °F 17.6 °F 77% 30.28 in 10.0 mi West 6.9 mph - N/A   Clear
5:15 AM 23.7 °F 15.6 °F 18.0 °F 79% 30.28 in 10.0 mi West 6.9 mph - N/A   Clear
5:35 AM 23.5 °F 16.4 °F 18.1 °F 80% 30.28 in 10.0 mi WSW 5.8 mph - N/A   Clear
5:55 AM 23.5 °F 17.6 °F 19.6 °F 85% 30.28 in 10.0 mi WSW 4.6 mph - N/A   Clear
6:15 AM 23.5 °F 17.6 °F 20.3 °F 87% 30.28 in 10.0 mi SW 4.6 mph - N/A   Clear
6:35 AM 23.5 °F 17.6 °F 20.3 °F 87% 30.28 in 10.0 mi WSW 4.6 mph - N/A   Clear
6:55 AM 23.2 °F - 20.3 °F 89% 30.28 in 10.0 mi Calm Calm - N/A   Clear
7:15 AM 22.8 °F 18.2 °F 20.3 °F 90% 30.28 in 10.0 mi SW 3.5 mph - N/A   Clear
7:35 AM 22.8 °F 18.2 °F 20.8 °F 92% 30.29 in 10.0 mi SW 3.5 mph - N/A   Clear
8:15 AM 24.6 °F 17.7 °F 21.9 °F 89% 30.30 in 10.0 mi WSW 5.8 mph - N/A   Scattered Clouds
8:35 AM 25.9 °F 18.2 °F 22.3 °F 86% 30.30 in 10.0 mi WSW 6.9 mph - N/A   Scattered Clouds
8:55 AM 27.0 °F 18.7 °F 22.8 °F 84% 30.31 in 10.0 mi West 8.1 mph - N/A   Clear
9:15 AM 28.2 °F 21.0 °F 23.0 °F 81% 30.31 in 10.0 mi West 6.9 mph - N/A   Clear
9:35 AM 29.1 °F 25.4 °F 22.6 °F 77% 30.31 in 10.0 mi WSW 3.5 mph - N/A   Clear
9:55 AM 29.8 °F 23.9 °F 21.7 °F 72% 30.31 in 10.0 mi WSW 5.8 mph - N/A   Clear
10:15 AM 31.3 °F 25.6 °F 20.8 °F 65% 30.30 in 10.0 mi SW 5.8 mph - N/A   Clear
10:35 AM 32.0 °F 25.6 °F 21.7 °F 66% 30.29 in 10.0 mi SW 6.9 mph - N/A   Clear
11:15 AM 33.4 °F 27.3 °F 17.1 °F 51% 30.28 in 10.0 mi WSW 6.9 mph - N/A   Clear
11:35 AM 33.8 °F 27.0 °F 16.7 °F 50% 30.27 in 10.0 mi WSW 8.1 mph - N/A   Scattered Clouds
12:15 PM 35.6 °F 31.7 °F 16.5 °F 46% 30.26 in 10.0 mi WSW 4.6 mph - N/A   Scattered Clouds
12:35 PM 36.9 °F 32.2 °F 17.2 °F 45% 30.25 in 10.0 mi South 5.8 mph - N/A   Clear
12:55 PM 37.8 °F 31.8 °F 17.4 °F 44% 30.25 in 10.0 mi WSW 8.1 mph - N/A   Clear
1:15 PM 38.3 °F 33.2 °F 17.2 °F 43% 30.24 in 10.0 mi SW 6.9 mph - N/A   Clear
1:35 PM 38.7 °F 31.8 °F 18.1 °F 44% 30.23 in 10.0 mi West 10.4 mph - N/A   Scattered Clouds
1:55 PM 39.0 °F 31.8 °F 20.7 °F 48% 30.23 in 10.0 mi WSW 11.5 mph 17.3 mph N/A   Scattered Clouds
2:15 PM 38.8 °F 33.8 °F 19.9 °F 47% 30.23 in 10.0 mi SSW 6.9 mph - N/A   Scattered Clouds
2:35 PM 38.8 °F 32.1 °F 20.8 °F 48% 30.21 in 10.0 mi SW 10.4 mph - N/A   Mostly Cloudy
2:55 PM 38.5 °F 32.7 °F 19.9 °F 47% 30.21 in 10.0 mi WSW 8.1 mph - N/A   Scattered Clouds
3:15 PM 38.8 °F 31.6 °F 18.3 °F 44% 30.20 in 10.0 mi WSW 11.5 mph - N/A   Mostly Cloudy
3:35 PM 38.3 °F 31.4 °F 19.0 °F 46% 30.20 in 10.0 mi West 10.4 mph - N/A   Overcast
3:55 PM 37.9 °F 31.5 °F 19.2 °F 47% 30.20 in 10.0 mi WSW 9.2 mph - N/A   Scattered Clouds
4:15 PM 38.1 °F 31.7 °F 21.9 °F 52% 30.19 in 10.0 mi West 9.2 mph - N/A   Mostly Cloudy
4:35 PM 37.8 °F 31.3 °F 24.3 °F 58% 30.18 in 10.0 mi WSW 9.2 mph - N/A   Overcast
5:15 PM 37.0 °F 31.0 °F 24.6 °F 61% 30.18 in 10.0 mi West 8.1 mph - N/A   Overcast
5:35 PM 36.7 °F 31.2 °F 24.1 °F 60% 30.16 in 10.0 mi SW 6.9 mph - N/A   Overcast
5:55 PM 36.7 °F 30.5 °F 23.5 °F 59% 30.17 in 10.0 mi WSW 8.1 mph - N/A   Overcast
6:15 PM 36.7 °F 31.2 °F 23.4 °F 59% 30.18 in 10.0 mi WSW 6.9 mph - N/A   Overcast
6:35 PM 36.5 °F 31.0 °F 24.3 °F 61% 30.20 in 10.0 mi WSW 6.9 mph - N/A   Overcast
6:55 PM 36.0 °F 31.1 °F 24.6 °F 63% 30.20 in 10.0 mi SW 5.8 mph - N/A   Overcast
7:15 PM 35.6 °F 30.7 °F 26.4 °F 69% 30.19 in 10.0 mi WSW 5.8 mph - N/A   Overcast
7:35 PM 35.1 °F 27.9 °F 28.0 °F 76% 30.18 in 10.0 mi WSW 9.2 mph - N/A   Overcast
7:55 PM 34.7 °F 28.8 °F 28.9 °F 79% 30.17 in 10.0 mi SSW 6.9 mph - N/A   Overcast
8:15 PM 34.2 °F 25.7 °F 28.9 °F 81% 30.15 in 10.0 mi SSW 11.5 mph - N/A   Overcast
8:35 PM 33.4 °F 25.4 °F 29.7 °F 86% 30.14 in 10.0 mi SSW 10.4 mph - N/A   Overcast
8:55 PM 32.9 °F 24.7 °F 30.7 °F 92% 30.15 in 10.0 mi SW 10.4 mph - N/A   Overcast
9:15 PM 32.7 °F 24.5 °F 31.1 °F 94% 30.15 in 10.0 mi SW 10.4 mph - N/A   Overcast
9:55 PM 32.0 °F 23.6 °F 30.9 °F 96% 30.14 in 10.0 mi SW 10.4 mph - N/A   Mostly Cloudy
10:15 PM 32.0 °F 24.8 °F 31.1 °F 96% 30.13 in 10.0 mi SW 8.1 mph - N/A   Scattered Clouds
10:35 PM 32.0 °F 26.4 °F 30.9 °F 96% 30.13 in 10.0 mi SW 5.8 mph - N/A   Scattered Clouds
10:55 PM 31.8 °F 25.4 °F 30.7 °F 96% 30.12 in 10.0 mi SW 6.9 mph - N/A   Scattered Clouds
11:15 PM 31.8 °F 25.4 °F 30.9 °F 96% 30.13 in 10.0 mi SW 6.9 mph - N/A   Mostly Cloudy
11:35 PM 32.0 °F 22.5 °F 31.3 °F 97% 30.11 in 10.0 mi SW 12.7 mph - N/A   Overcast
11:55 PM 32.0 °F 24.2 °F 31.6 °F 99% 30.10 in 7.0 mi SW 9.2 mph - N/A   Overcast